Weather History for KCQB - October, 2012

Change the Weather History Date:

Tuesday, October 16, 2012

  Actual Average (KCUH) Record (KCUH)
Temperature  
Mean Temperature 71 °F -  
Max Temperature 82 °F 71 °F 91 °F (2011)
Min Temperature 60 °F 49 °F 34 °F (1948)
Cooling Degree Days 6    
Growing Degree Days 21 (Base 50)    
Moisture  
Dew Point 56 °F    
Average Humidity 63    
Maximum Humidity 83    
Minimum Humidity 37    
Precipitation  
Precipitation 0.00 in - - ()
Sea Level Pressure  
Sea Level Pressure 29.74 in    
Wind  
Wind Speed 11 mph (South)    
Max Wind Speed 21 mph    
Max Gust Speed 28 mph    
Visibility 10 miles    
Events      
Averages and records for this station are not official NWS values.
T = Trace of Precipitation, MM = Missing Value Source: NWS Daily Summary

Daily Weather History Graph

Daily Weather History Graph

Search for Another Location

Airport or City:

Trip Planner

Search our weather history database for the weather conditions in past years. The results will help you decide how hot, cold, wet, or windy it might be!

Date:

Astronomy

Oct. 16, 2012 Rise Set
Actual Time 7:35 AM CDT 6:49 PM CDT
Civil Twilight 7:09 AM CDT 7:15 PM CDT
Nautical Twilight 6:39 AM CDT 7:45 PM CDT
Astronomical Twilight 6:10 AM CDT 8:14 PM CDT
Moon 8:55 AM CDT (10/16) 7:40 PM CDT (10/16)
Length of Visible Light 12h 06m
Length of Day
11h 14m
New Moon, 2% of the Moon is Illuminated
Oct 16
New Moon
Oct 21
First Quarter
Oct 29
Full
Nov 6
Last Quarter
Nov 13
New

Hourly Weather History & Observations

Time (CDT) Temp. Heat Index Dew Point Humidity Pressure Visibility Wind Dir Wind Speed Gust Speed Precip Events Conditions
12:15 AM 66.2 °F - 55.4 °F 68% 29.91 in 10.0 mi SSW 11.5 mph - N/A   Clear
12:35 AM 68.0 °F - 55.4 °F 64% 29.90 in 10.0 mi SSW 10.4 mph - N/A   Clear
12:55 AM 68.0 °F - 55.4 °F 64% 29.90 in 10.0 mi SSW 12.7 mph 17.3 mph N/A   Clear
1:15 AM 68.0 °F - 53.6 °F 60% 29.90 in 10.0 mi SSW 10.4 mph 17.3 mph N/A   Clear
1:35 AM 66.2 °F - 53.6 °F 64% 29.89 in 10.0 mi SSW 11.5 mph - N/A   Clear
1:55 AM 66.2 °F - 53.6 °F 64% 29.88 in 10.0 mi SSW 12.7 mph - N/A   Clear
2:15 AM 64.4 °F - 53.6 °F 68% 29.88 in 10.0 mi SSW 11.5 mph 17.3 mph N/A   Clear
2:35 AM 64.4 °F - 53.6 °F 68% 29.88 in 10.0 mi SSW 10.4 mph - N/A   Clear
2:55 AM 64.4 °F - 53.6 °F 68% 29.87 in 10.0 mi SSW 8.1 mph - N/A   Clear
3:15 AM 64.4 °F - 53.6 °F 68% 29.87 in 10.0 mi SSW 10.4 mph - N/A   Clear
3:35 AM 64.4 °F - 53.6 °F 68% 29.87 in 10.0 mi SSW 9.2 mph - N/A   Clear
3:55 AM 62.6 °F - 53.6 °F 72% 29.86 in 10.0 mi SSW 11.5 mph - N/A   Clear
4:15 AM 62.6 °F - 53.6 °F 72% 29.85 in 10.0 mi SSW 10.4 mph - N/A   Clear
4:35 AM 62.6 °F - 53.6 °F 72% 29.85 in 10.0 mi SSW 10.4 mph - N/A   Clear
4:55 AM 62.6 °F - 53.6 °F 72% 29.85 in 10.0 mi SSW 9.2 mph - N/A   Clear
5:15 AM 62.6 °F - 53.6 °F 72% 29.85 in 10.0 mi SSW 8.1 mph - N/A   Clear
5:35 AM 60.8 °F - 53.6 °F 77% 29.85 in 10.0 mi SSW 9.2 mph - N/A   Clear
5:55 AM 60.8 °F - 53.6 °F 77% 29.84 in 10.0 mi SSW 8.1 mph - N/A   Clear
6:15 AM 60.8 °F - 53.6 °F 77% 29.85 in 10.0 mi SSW 6.9 mph - N/A   Clear
6:35 AM 60.8 °F - 53.6 °F 77% 29.85 in 10.0 mi South 6.9 mph - N/A   Clear
7:15 AM 60.8 °F - 53.6 °F 77% 29.84 in 10.0 mi South 9.2 mph - N/A   Clear
7:35 AM 60.8 °F - 53.6 °F 77% 29.83 in 10.0 mi South 8.1 mph - N/A   Clear
7:55 AM 60.8 °F - 53.6 °F 77% 29.83 in 10.0 mi South 6.9 mph - N/A   Clear
8:15 AM 60.8 °F - 53.6 °F 77% 29.83 in 10.0 mi South 6.9 mph - N/A   Clear
8:35 AM 62.6 °F - 53.6 °F 72% 29.83 in 10.0 mi South 8.1 mph - N/A   Clear
8:55 AM 64.4 °F - 55.4 °F 73% 29.83 in 10.0 mi South 10.4 mph - N/A   Clear
9:15 AM 68.0 °F - 55.4 °F 64% 29.83 in 10.0 mi South 10.4 mph 19.6 mph N/A   Clear
9:35 AM 69.8 °F - 55.4 °F 60% 29.83 in 10.0 mi South 12.7 mph 21.9 mph N/A   Clear
9:55 AM 71.6 °F - 55.4 °F 57% 29.82 in 10.0 mi SSW 13.8 mph 23.0 mph N/A   Clear
10:15 AM 73.4 °F - 55.4 °F 53% 29.82 in 10.0 mi SSW 17.3 mph 20.7 mph N/A   Clear
10:35 AM 73.4 °F - 55.4 °F 53% 29.82 in 10.0 mi South 16.1 mph 21.9 mph N/A   Clear
10:55 AM 75.2 °F - 55.4 °F 50% 29.81 in 10.0 mi SSW 16.1 mph 20.7 mph N/A   Clear
11:15 AM 75.2 °F - 55.4 °F 50% 29.80 in 10.0 mi South 17.3 mph 23.0 mph N/A   Clear
11:35 AM 77.0 °F - 55.4 °F 47% 29.80 in 10.0 mi South 18.4 mph 25.3 mph N/A   Clear
11:55 AM 77.0 °F - 53.6 °F 44% 29.79 in 10.0 mi South 20.7 mph 26.5 mph N/A   Clear
12:15 PM 78.8 °F - 53.6 °F 42% 29.78 in 10.0 mi South 16.1 mph 25.3 mph N/A   Clear
12:35 PM 78.8 °F - 53.6 °F 42% 29.77 in 10.0 mi South 15.0 mph 25.3 mph N/A   Clear
12:55 PM 80.6 °F - 51.8 °F 37% 29.75 in 10.0 mi South 20.7 mph 27.6 mph N/A   Clear
1:15 PM 80.6 °F 80.3 °F 53.6 °F 39% 29.74 in 10.0 mi North - - N/A   Clear
1:35 PM 80.6 °F 80.3 °F 53.6 °F 39% 29.72 in 10.0 mi South 19.6 mph 25.3 mph N/A   Clear
1:55 PM 80.6 °F 80.3 °F 53.6 °F 39% 29.71 in 10.0 mi SSW 13.8 mph 25.3 mph N/A   Clear
2:15 PM 80.6 °F 80.5 °F 55.4 °F 42% 29.69 in 10.0 mi South 16.1 mph 24.2 mph N/A   Clear
2:35 PM 80.6 °F 80.5 °F 55.4 °F 42% 29.68 in 10.0 mi South 20.7 mph 26.5 mph N/A   Clear
2:55 PM 80.6 °F 80.5 °F 55.4 °F 42% 29.68 in 10.0 mi South 13.8 mph 23.0 mph N/A   Clear
3:15 PM 82.4 °F 81.7 °F 55.4 °F 39% 29.66 in 10.0 mi South 18.4 mph 24.2 mph N/A   Clear
3:35 PM 80.6 °F 80.8 °F 57.2 °F 45% 29.66 in 10.0 mi South 9.2 mph 21.9 mph N/A   Clear
3:55 PM 80.6 °F 80.8 °F 57.2 °F 45% 29.64 in 10.0 mi South 16.1 mph 23.0 mph N/A   Clear
4:15 PM 80.6 °F 81.1 °F 59.0 °F 48% 29.63 in 10.0 mi South 15.0 mph 25.3 mph N/A   Clear
4:35 PM 80.6 °F 81.1 °F 59.0 °F 48% 29.62 in 10.0 mi South 16.1 mph 21.9 mph N/A   Clear
4:55 PM 80.6 °F 81.1 °F 59.0 °F 48% 29.61 in 10.0 mi South 18.4 mph 24.2 mph N/A   Clear
5:15 PM 80.6 °F 81.5 °F 60.8 °F 51% 29.60 in 10.0 mi South 13.8 mph 20.7 mph N/A   Clear
5:35 PM 78.8 °F - 60.8 °F 54% 29.59 in 10.0 mi South 19.6 mph 26.5 mph N/A   Clear
5:55 PM 78.8 °F - 60.8 °F 54% 29.59 in 10.0 mi South 13.8 mph 25.3 mph N/A   Clear
6:15 PM 77.0 °F - 60.8 °F 57% 29.60 in 10.0 mi South 10.4 mph 21.9 mph N/A   Clear
6:35 PM 75.2 °F - 60.8 °F 61% 29.61 in 10.0 mi South 11.5 mph - N/A   Clear
6:55 PM 73.4 °F - 60.8 °F 65% 29.61 in 10.0 mi South 10.4 mph - N/A   Clear
7:15 PM 71.6 °F - 60.8 °F 69% 29.61 in 10.0 mi South 5.8 mph - N/A   Clear
7:35 PM 69.8 °F - 60.8 °F 73% 29.62 in 10.0 mi SSE 5.8 mph - N/A   Clear
7:55 PM 69.8 °F - 60.8 °F 73% 29.62 in 10.0 mi SSE 6.9 mph - N/A   Clear
8:15 PM 68.0 °F - 60.8 °F 78% 29.62 in 10.0 mi SSE 6.9 mph - N/A   Clear
8:35 PM 68.0 °F - 60.8 °F 78% 29.61 in 10.0 mi SE 6.9 mph - N/A   Clear
8:55 PM 68.0 °F - 60.8 °F 78% 29.61 in 10.0 mi SSE 6.9 mph - N/A   Clear
9:15 PM 68.0 °F - 60.8 °F 78% 29.61 in 10.0 mi SE 5.8 mph - N/A   Clear
9:35 PM 68.0 °F - 60.8 °F 78% 29.61 in 10.0 mi SSE 6.9 mph - N/A   Clear
9:55 PM 68.0 °F - 60.8 °F 78% 29.61 in 10.0 mi SSE 8.1 mph - N/A   Clear
10:15 PM 68.0 °F - 60.8 °F 78% 29.60 in 10.0 mi SSE 8.1 mph - N/A   Clear
10:35 PM 66.2 °F - 60.8 °F 83% 29.60 in 10.0 mi SSE 8.1 mph - N/A   Clear
10:55 PM 68.0 °F - 60.8 °F 78% 29.60 in 10.0 mi SSE 11.5 mph 21.9 mph N/A   Clear
11:15 PM 66.2 °F - 60.8 °F 83% 29.60 in 10.0 mi South 10.4 mph - N/A   Clear
11:35 PM 66.2 °F - 60.8 °F 83% 29.59 in 10.0 mi South 12.7 mph - N/A   Clear
11:55 PM 66.2 °F - 60.8 °F 83% 29.58 in 10.0 mi SSE 11.5 mph 16.1 mph N/A   Clear